Stündliche Wetter Bolshie Galashki

Heute, 11 April, Sonntag

Zeit Temperatur Niederschläge Wind Luftdruck Luftfeuchtigkeit
00:00 +3°C° 0 mm 2 m/S 737 mmHg 98%
01:00 +4°C° 0 mm 2 m/S 737 mmHg 97%
02:00 +4°C° 0 mm 2 m/S 737 mmHg 96%
03:00 +3°C° 0 mm 2 m/S 737 mmHg 94%
04:00 +3°C° 0 mm 2 m/S 737 mmHg 93%
05:00 +4°C° 0 mm 2 m/S 737 mmHg 91%
06:00 +5°C° 0 mm 3 m/S 737 mmHg 89%
07:00 +7°C° 0 mm 3 m/S 737 mmHg 87%
08:00 +7°C° 0 mm 4 m/S 737 mmHg 83%
09:00 +8°C° 0 mm 4 m/S 737 mmHg 80%
10:00 +10°C° 0 mm 4 m/S 737 mmHg 77%
11:00 +10°C° 0 mm 4 m/S 737 mmHg 76%
12:00 +9°C° 0 mm 5 m/S 736 mmHg 74%
13:00 +10°C° 0 mm 5 m/S 736 mmHg 73%
14:00 +9°C° 0 mm 5 m/S 736 mmHg 75%
15:00 +9°C° 0 mm 5 m/S 737 mmHg 77%
16:00 +10°C° 0 mm 4 m/S 737 mmHg 79%
17:00 +8°C° 0 mm 4 m/S 737 mmHg 82%
18:00 +7°C° 0 mm 4 m/S 737 mmHg 86%
19:00 +7°C° 0 mm 3 m/S 737 mmHg 90%
20:00 +7°C° 0.1 mm 3 m/S 737 mmHg 92%
21:00 +5°C° 0.1 mm 3 m/S 738 mmHg 94%
22:00 +5°C° 0.1 mm 3 m/S 738 mmHg 96%
23:00 +6°C° 0.1 mm 2 m/S 738 mmHg 97%

Morgen, 12 April, Montag

Zeit Temperatur Niederschläge Wind Luftdruck Luftfeuchtigkeit
00:00 +5°C° 0.1 mm 2 m/S 738 mmHg 97%
01:00 +5°C° 0.1 mm 2 m/S 738 mmHg 98%
02:00 +4°C° 0 mm 2 m/S 739 mmHg 98%
03:00 +5°C° 0 mm 1 m/S 739 mmHg 97%
04:00 +4°C° 0 mm 1 m/S 739 mmHg 97%
05:00 +4°C° 0 mm 1 m/S 740 mmHg 94%
06:00 +4°C° 0 mm 1 m/S 740 mmHg 90%
07:00 +4°C° 0 mm 1 m/S 741 mmHg 87%
08:00 +5°C° 0 mm 1 m/S 741 mmHg 83%
09:00 +5°C° 0 mm 2 m/S 741 mmHg 79%
10:00 +6°C° 0 mm 2 m/S 742 mmHg 76%
11:00 +7°C° 0 mm 2 m/S 742 mmHg 71%
12:00 +8°C° 0 mm 2 m/S 742 mmHg 66%
13:00 +8°C° 0 mm 2 m/S 742 mmHg 61%
14:00 +8°C° 0 mm 2 m/S 742 mmHg 57%
15:00 +8°C° 0 mm 2 m/S 743 mmHg 54%
16:00 +8°C° 0 mm 2 m/S 743 mmHg 50%
17:00 +7°C° 0 mm 2 m/S 743 mmHg 59%
18:00 +6°C° 0 mm 1 m/S 743 mmHg 67%
19:00 +5°C° 0 mm 1 m/S 743 mmHg 75%
20:00 +4°C° 0 mm 1 m/S 743 mmHg 78%
21:00 +3°C° 0 mm 1 m/S 744 mmHg 81%
22:00 +2°C° 0 mm 0 m/S 744 mmHg 84%
23:00 +1°C° 0 mm 0 m/S 744 mmHg 84%

übermorgen, 13 April, Dienstag

Zeit Temperatur Niederschläge Wind Luftdruck Luftfeuchtigkeit
00:00 +1°C° 0 mm 0 m/S 744 mmHg 84%
01:00 0°C° 0 mm 0 m/S 743 mmHg 84%
02:00 0°C° 0 mm 0 m/S 744 mmHg 84%
03:00 0°C° 0 mm 0 m/S 744 mmHg 83%
04:00 0°C° 0 mm 0 m/S 744 mmHg 82%
05:00 +1°C° 0 mm 0 m/S 744 mmHg 78%
06:00 +3°C° 0 mm 1 m/S 744 mmHg 74%
07:00 +4°C° 0 mm 1 m/S 744 mmHg 71%
08:00 +6°C° 0 mm 1 m/S 743 mmHg 64%
09:00 +8°C° 0 mm 1 m/S 743 mmHg 57%
10:00 +10°C° 0 mm 1 m/S 743 mmHg 51%
11:00 +10°C° 0 mm 2 m/S 743 mmHg 48%
12:00 +12°C° 0 mm 2 m/S 742 mmHg 46%
13:00 +13°C° 0 mm 2 m/S 742 mmHg 44%
14:00 +14°C° 0 mm 2 m/S 742 mmHg 47%
15:00 +14°C° 0 mm 2 m/S 741 mmHg 50%
16:00 +14°C° 0 mm 2 m/S 741 mmHg 52%
17:00 +13°C° 0 mm 2 m/S 740 mmHg 63%
18:00 +12°C° 0 mm 2 m/S 740 mmHg 74%
19:00 +9°C° 0 mm 2 m/S 740 mmHg 85%
20:00 +9°C° 0 mm 2 m/S 739 mmHg 87%
21:00 +8°C° 0 mm 2 m/S 739 mmHg 90%
22:00 +8°C° 0 mm 2 m/S 739 mmHg 92%
23:00 +7°C° 0 mm 2 m/S 739 mmHg 93%

14 April, Mittwoch

Zeit Temperatur Niederschläge Wind Luftdruck Luftfeuchtigkeit
00:00 +7°C° 0 mm 2 m/S 738 mmHg 93%
01:00 +6°C° 0 mm 2 m/S 738 mmHg 93%
02:00 +6°C° 0 mm 2 m/S 738 mmHg 94%
03:00 +6°C° 0 mm 2 m/S 738 mmHg 95%
04:00 +5°C° 0 mm 2 m/S 738 mmHg 95%
05:00 +6°C° 0 mm 2 m/S 738 mmHg 93%
06:00 +7°C° 0 mm 2 m/S 737 mmHg 91%
07:00 +8°C° 0 mm 2 m/S 737 mmHg 89%
08:00 +9°C° 0 mm 3 m/S 737 mmHg 82%
09:00 +11°C° 0 mm 3 m/S 737 mmHg 75%
10:00 +13°C° 0 mm 4 m/S 737 mmHg 69%
11:00 +14°C° 0 mm 4 m/S 737 mmHg 64%
12:00 +14°C° 0 mm 4 m/S 736 mmHg 59%
13:00 +15°C° 0 mm 4 m/S 736 mmHg 54%
14:00 +15°C° 0 mm 4 m/S 736 mmHg 52%
15:00 +15°C° 0 mm 4 m/S 735 mmHg 50%
16:00 +16°C° 0 mm 3 m/S 735 mmHg 48%
17:00 +13°C° 0 mm 3 m/S 735 mmHg 55%
18:00 +13°C° 0 mm 2 m/S 734 mmHg 62%
19:00 +11°C° 0 mm 1 m/S 734 mmHg 68%
20:00 +9°C° 0 mm 2 m/S 734 mmHg 70%
21:00 +8°C° 0 mm 2 m/S 734 mmHg 73%
22:00 +7°C° 0 mm 2 m/S 734 mmHg 75%
23:00 +7°C° 0 mm 2 m/S 733 mmHg 76%

15 April, Donnerstag

Zeit Temperatur Niederschläge Wind Luftdruck Luftfeuchtigkeit
00:00 +6°C° 0 mm 2 m/S 733 mmHg 77%
01:00 +6°C° 0 mm 2 m/S 733 mmHg 78%
02:00 +5°C° 0 mm 2 m/S 733 mmHg 79%
03:00 +5°C° 0 mm 2 m/S 732 mmHg 79%
04:00 +4°C° 0 mm 2 m/S 732 mmHg 80%
05:00 +5°C° 0 mm 2 m/S 732 mmHg 76%
06:00 +6°C° 0 mm 2 m/S 732 mmHg 72%
07:00 +7°C° 0 mm 2 m/S 732 mmHg 69%
08:00 +9°C° 0 mm 2 m/S 732 mmHg 62%
09:00 +11°C° 0 mm 3 m/S 731 mmHg 55%
10:00 +12°C° 0 mm 3 m/S 731 mmHg 49%
11:00 +13°C° 0 mm 3 m/S 731 mmHg 44%
12:00 +14°C° 0 mm 4 m/S 731 mmHg 40%
13:00 +15°C° 0 mm 4 m/S 730 mmHg 36%
14:00 +17°C° 0 mm 4 m/S 730 mmHg 35%
15:00 +17°C° 0 mm 4 m/S 730 mmHg 34%
16:00 +17°C° 0 mm 4 m/S 729 mmHg 33%
17:00 +14°C° 0 mm 3 m/S 729 mmHg 40%
18:00 +13°C° 0 mm 2 m/S 729 mmHg 46%
19:00 +10°C° 0 mm 2 m/S 728 mmHg 53%
20:00 +9°C° 0 mm 2 m/S 728 mmHg 56%
21:00 +10°C° 0 mm 1 m/S 728 mmHg 59%
22:00 +9°C° 0 mm 1 m/S 727 mmHg 62%
23:00 +8°C° 0 mm 1 m/S 727 mmHg 65%

16 April, Freitag

Zeit Temperatur Niederschläge Wind Luftdruck Luftfeuchtigkeit
00:00 +8°C° 0 mm 1 m/S 726 mmHg 68%
01:00 +8°C° 0 mm 1 m/S 726 mmHg 72%
02:00 +6°C° 0 mm 2 m/S 725 mmHg 75%
03:00 +6°C° 0 mm 2 m/S 725 mmHg 79%
04:00 +5°C° 0 mm 2 m/S 725 mmHg 83%
05:00 +6°C° 0 mm 2 m/S 724 mmHg 81%
06:00 +7°C° 0 mm 2 m/S 724 mmHg 80%
07:00 +8°C° 0 mm 2 m/S 723 mmHg 79%
08:00 +10°C° 0 mm 3 m/S 723 mmHg 74%
09:00 +11°C° 0 mm 3 m/S 722 mmHg 70%
10:00 +12°C° 0 mm 4 m/S 722 mmHg 66%
11:00 +13°C° 0.2 mm 4 m/S 721 mmHg 63%
12:00 +13°C° 0.2 mm 4 m/S 721 mmHg 60%
13:00 +13°C° 0.2 mm 5 m/S 720 mmHg 57%
14:00 +10°C° 0.3 mm 5 m/S 720 mmHg 64%
15:00 +8°C° 0.3 mm 5 m/S 720 mmHg 70%
16:00 +6°C° 0.3 mm 5 m/S 720 mmHg 77%
17:00 +3°C° 0.1 mm 5 m/S 720 mmHg 82%
18:00 +1°C° 0.1 mm 4 m/S 721 mmHg 86%
19:00 0°C° 0.1 mm 4 m/S 721 mmHg 91%
20:00 -1°C° 0.3 mm 4 m/S 721 mmHg 90%
21:00 -2°C° 0.3 mm 4 m/S 721 mmHg 89%
22:00 -3°C° 0.3 mm 4 m/S 721 mmHg 88%
23:00 -4°C° 0.1 mm 4 m/S 721 mmHg 84%
Mehr zeigen

Wir brauchen deine Erlaubnis

Meteoprog und unser Service Anbieter werden persönliche Daten aufbewahren, so wie Cookies, Geräte Bezeichnung oder ähnliche Technologien von deinem Gerät und Prozess, so wie Persönliche Daten Inhalte und Werbungen, genauso wie social Media und den Verkehr zu analysieren.

  • Aufbewahrung und/oder Zugang zu deiner Geräte Informationen.

    Cookies, Geräte Bezeichnung oder andere Informationen, können aufbewahrt oder Zugang zu deinem Gerät erhalten, für den Grund, der oben angegeben wird.

  • Personalisierte Werbung und Inhalte, Messungen, Einblick in das Publikum und Produkt Entwicklung.

    Werbungen und Inhalte können personalisiert werden, basierend auf ein Profil. Mehr Daten können besser personalisierte Werbungen und Inhalte hinzufügen. Werbung und Inhalte können gezeigt und gemessen werden. Einblicke über das Publikum, welche die Werbung gesehen haben und den Inhalt, können abgeleitet werden. So wie Daten können genutzt werden, um es zu verbessern oder die Benutzer Erfahrung zu verbessern das System und die Software.

Wenn du “Ich stimme zu” klickst, erlaubst du uns, die Cookies zu benutzen die Geräte Bezeichnung, den Web oder ähnliche Technologien zu benutzen. Deine Settings, können in deinem Gerät bei deinem Browser geändert werden.

Für den bestimmten Zweck, berechtigten Interessen beruhen darauf, mehr als auf den Inhalt. Du kannst mehr darüber in unseren Privaten und Cookie Politik lesen.